Waupaca, WI

4:17 PM CST on November 16, 2019 (GMT -0600)
Waupaca Municipal

Weather History for KPCZ - September, 2019

Change the Weather History Date:

Monday, September 23, 2019

  Actual Average Record
Temperature  
Mean Temperature 66 °F -  
Max Temperature 75 °F 65 °F 92 °F (2017)
Min Temperature 56 °F 42 °F 24 °F (1974)
Growing Degree Days 16 (Base 50)    
Moisture  
Dew Point 54 °F    
Average Humidity 74    
Maximum Humidity 97    
Minimum Humidity 40    
Precipitation  
Precipitation 0.01 in - - ()
Sea Level Pressure  
Sea Level Pressure 29.95 in    
Wind  
Wind Speed 7 mph (West)    
Max Wind Speed 17 mph    
Max Gust Speed 20 mph    
Visibility 10 miles    
Events      
Averages and records for this station are not official NWS values.
T = Trace of Precipitation, MM = Missing Value Source: NWS Daily Summary

Daily Weather History Graph

Daily Weather History Graph

Search for Another Location

Airport or City:

Astronomy

Sep. 23, 2019 Rise Set
Actual Time 6:44 AM CDT 6:52 PM CDT
Civil Twilight 6:15 AM CDT 7:20 PM CDT
Nautical Twilight 5:41 AM CDT 7:54 PM CDT
Astronomical Twilight 5:06 AM CDT 8:29 PM CDT
Moon 12:12 AM CDT (9/23) 3:59 PM CDT (9/23)
Length of Visible Light 13h 05m
Length of Day
12h 07m
Waning Crescent, 33% of the Moon is Illuminated
Sep 23
Waning Crescent
Sep 28
New
Oct 5
First Quarter
Oct 13
Full
Oct 21
Last Quarter

Hourly Weather History & Observations

Time (CDT) Temp. Dew Point Humidity Pressure Visibility Wind Dir Wind Speed Gust Speed Precip Events Conditions
12:15 AM 60.4 °F 59.0 °F 95% 29.86 in 10.0 mi West 6.9 mph - N/A   Scattered Clouds
12:35 AM 60.1 °F 58.5 °F 94% 29.86 in 10.0 mi West 5.8 mph - 0.01 in   Mostly Cloudy
12:55 AM 59.9 °F 58.1 °F 94% 29.87 in 10.0 mi West 8.1 mph - 0.01 in   Overcast
1:35 AM 58.3 °F 56.5 °F 94% 29.87 in 10.0 mi West 5.8 mph - N/A   Clear
1:55 AM 58.3 °F 57.0 °F 96% 29.88 in 10.0 mi West 5.8 mph - N/A   Mostly Cloudy
2:15 AM 58.3 °F 57.2 °F 96% 29.88 in 10.0 mi West 3.5 mph - N/A   Overcast
2:35 AM 58.5 °F 57.2 °F 96% 29.89 in 10.0 mi West 5.8 mph - N/A   Overcast
2:55 AM 57.6 °F 55.9 °F 94% 29.89 in 10.0 mi West 4.6 mph - N/A   Scattered Clouds
3:15 AM 56.7 °F 55.4 °F 96% 29.89 in 10.0 mi West 4.6 mph - N/A   Clear
3:35 AM 56.3 °F 54.9 °F 95% 29.89 in 10.0 mi WSW 4.6 mph - N/A   Clear
3:55 AM 56.3 °F 55.0 °F 96% 29.90 in 10.0 mi West 4.6 mph - N/A   Clear
4:15 AM 56.3 °F 55.4 °F 97% 29.90 in 10.0 mi West 5.8 mph - N/A   Clear
4:35 AM 56.8 °F 55.9 °F 97% 29.91 in 10.0 mi WSW 5.8 mph - N/A   Scattered Clouds
4:55 AM 57.4 °F 56.5 °F 97% 29.91 in 10.0 mi West 8.1 mph - N/A   Overcast
5:15 AM 57.4 °F 56.5 °F 97% 29.92 in 10.0 mi West 8.1 mph - N/A   Overcast
5:35 AM 57.4 °F 56.3 °F 96% 29.92 in 10.0 mi West 6.9 mph - N/A   Overcast
5:55 AM 57.6 °F 56.3 °F 96% 29.92 in 10.0 mi West 5.8 mph - N/A   Overcast
6:15 AM 57.4 °F 55.8 °F 94% 29.93 in 10.0 mi West 8.1 mph - N/A   Overcast
6:35 AM 57.2 °F 55.4 °F 94% 29.93 in 10.0 mi West 6.9 mph - N/A   Mostly Cloudy
6:55 AM 56.8 °F 55.4 °F 95% 29.93 in 10.0 mi West 8.1 mph - N/A   Scattered Clouds
7:15 AM 56.8 °F 55.4 °F 95% 29.94 in 10.0 mi West 5.8 mph - N/A   Clear
7:35 AM 57.0 °F 55.4 °F 94% 29.94 in 10.0 mi West 4.6 mph - N/A   Clear
7:55 AM 58.1 °F 55.9 °F 93% 29.95 in 10.0 mi WSW 5.8 mph - N/A   Clear
8:15 AM 58.8 °F 55.8 °F 90% 29.95 in 10.0 mi West 6.9 mph - N/A   Clear
8:35 AM 59.5 °F 55.8 °F 87% 29.96 in 10.0 mi West 8.1 mph - N/A   Clear
8:55 AM 60.4 °F 55.9 °F 85% 29.96 in 10.0 mi WSW 9.2 mph - N/A   Clear
9:15 AM 62.2 °F 56.3 °F 81% 29.96 in 10.0 mi West 8.1 mph - N/A   Clear
9:35 AM 63.7 °F 56.5 °F 77% 29.96 in 10.0 mi West 8.1 mph - N/A   Clear
9:55 AM 64.4 °F 55.9 °F 74% 29.96 in 10.0 mi West 11.5 mph - N/A   Clear
10:15 AM 64.6 °F 55.9 °F 74% 29.97 in 10.0 mi West 10.4 mph - N/A   Clear
10:35 AM 65.8 °F 56.3 °F 71% 29.98 in 10.0 mi WNW 10.4 mph - N/A   Clear
10:55 AM 66.4 °F 56.5 °F 70% 29.98 in 10.0 mi West 9.2 mph - N/A   Scattered Clouds
11:15 AM 67.8 °F 56.3 °F 67% 29.98 in 10.0 mi West 10.4 mph - N/A   Clear
11:35 AM 68.4 °F 55.2 °F 63% 29.98 in 10.0 mi WSW 11.5 mph - N/A   Clear
11:55 AM 69.3 °F 54.9 °F 60% 29.98 in 10.0 mi West 9.2 mph 17.3 mph N/A   Scattered Clouds
12:15 PM 70.0 °F 52.9 °F 55% 29.98 in 10.0 mi West 9.2 mph - N/A   Clear
12:35 PM 71.1 °F 52.0 °F 51% 29.98 in 10.0 mi West 10.4 mph 19.6 mph N/A   Clear
12:55 PM 71.8 °F 52.2 °F 50% 29.98 in 10.0 mi WSW 12.7 mph 18.4 mph N/A   Clear
1:15 PM 72.3 °F 52.5 °F 50% 29.97 in 10.0 mi West 10.4 mph - N/A   Scattered Clouds
1:35 PM 72.7 °F 51.6 °F 47% 29.97 in 10.0 mi West 9.2 mph 18.4 mph N/A   Scattered Clouds
1:55 PM 72.9 °F 51.6 °F 47% 29.96 in 10.0 mi WNW 6.9 mph 16.1 mph N/A   Scattered Clouds
2:15 PM 72.5 °F 51.3 °F 47% 29.96 in 10.0 mi WNW 10.4 mph - N/A   Scattered Clouds
2:35 PM 73.2 °F 50.2 °F 44% 29.96 in 10.0 mi West 9.2 mph 17.3 mph N/A   Scattered Clouds
2:55 PM 74.3 °F 50.2 °F 43% 29.96 in 10.0 mi West 12.7 mph 17.3 mph N/A   Scattered Clouds
3:15 PM 73.2 °F 50.2 °F 44% 29.96 in 10.0 mi West 12.7 mph - N/A   Scattered Clouds
3:35 PM 75.0 °F 50.0 °F 41% 29.95 in 10.0 mi West 17.3 mph - N/A   Scattered Clouds
3:55 PM 74.5 °F 50.4 °F 43% 29.95 in 10.0 mi West 10.4 mph - N/A   Scattered Clouds
4:15 PM 74.3 °F 50.5 °F 43% 29.95 in 10.0 mi West 8.1 mph - N/A   Scattered Clouds
4:35 PM 75.2 °F 49.3 °F 40% 29.95 in 10.0 mi West 11.5 mph 16.1 mph N/A   Scattered Clouds
4:55 PM 74.5 °F 49.1 °F 41% 29.95 in 10.0 mi West 10.4 mph - N/A   Clear
5:15 PM 73.8 °F 49.5 °F 42% 29.95 in 10.0 mi WNW 6.9 mph - N/A   Clear
5:35 PM 73.4 °F 48.9 °F 42% 29.95 in 10.0 mi West 6.9 mph - N/A   Clear
5:55 PM 72.7 °F 49.5 °F 44% 29.95 in 10.0 mi West 4.6 mph - N/A   Clear
6:15 PM 71.2 °F 50.7 °F 48% 29.95 in 10.0 mi WSW 4.6 mph - N/A   Clear
6:35 PM 68.9 °F 52.5 °F 56% 29.95 in 10.0 mi SW 3.5 mph - N/A   Clear
6:55 PM 67.5 °F 52.9 °F 59% 29.96 in 10.0 mi Calm Calm - N/A   Clear
7:15 PM 65.5 °F 53.4 °F 65% 29.96 in 10.0 mi Calm Calm - N/A   Clear
7:35 PM 64.0 °F 54.5 °F 71% 29.96 in 10.0 mi Calm Calm - N/A   Clear
7:55 PM 62.6 °F 54.5 °F 75% 29.97 in 10.0 mi Calm Calm - N/A   Clear
8:15 PM 62.2 °F 54.5 °F 76% 29.97 in 10.0 mi Calm Calm - N/A   Clear
8:35 PM 60.8 °F 54.1 °F 79% 29.97 in 10.0 mi Calm Calm - N/A   Clear
8:55 PM 58.8 °F 53.8 °F 83% 29.97 in 10.0 mi Calm Calm - N/A   Clear
9:15 PM 59.4 °F 53.6 °F 81% 29.97 in 10.0 mi Calm Calm - N/A   Clear
9:35 PM 58.5 °F 52.7 °F 81% 29.98 in 10.0 mi Calm Calm - N/A   Clear
9:55 PM 57.4 °F 53.6 °F 87% 29.98 in 10.0 mi Calm Calm - N/A   Clear
10:15 PM 59.0 °F 53.4 °F 82% 29.97 in 10.0 mi Calm Calm - N/A   Clear
10:35 PM 58.1 °F 53.1 °F 83% 29.98 in 10.0 mi Calm Calm - N/A   Clear
10:55 PM 59.4 °F 52.9 °F 79% 29.97 in 10.0 mi WSW 3.5 mph - N/A   Clear
11:15 PM 59.2 °F 52.7 °F 79% 29.97 in 10.0 mi WSW 3.5 mph - N/A   Clear
11:35 PM 58.5 °F 52.7 °F 81% 29.97 in 10.0 mi SW 3.5 mph - N/A   Clear
11:55 PM 57.7 °F 52.7 °F 83% 29.97 in 10.0 mi SW 3.5 mph - N/A   Clear